Location: Vihti�l�
(61.3833°N, 23.0667°E)
Time: 03:29:02
(UTC+00:00)

ARGOS Delta rocket - Pass Details

Date: 29 November 2020
Orbit: 634 x 839 km, 96.5° (Epoch: 19 January)

Event Time Altitude Azimuth Distance (km) Brightness Sun altitude
Rises 03:53:12 0° 14° (NNE) 3,354 7.4 -21.5°
Reaches altitude 10° 03:55:38 10° 11° (N) 2,396 6.6 -21.2°
Maximum altitude 04:00:51 60° 293° (WNW) 889 4.0 -20.6°
Enters shadow 04:04:42 17° 217° (SW) 1,851 5.7 -20.2°
